This is the latest recevied weather packets stored in our database for station/object WD4IXD. If no packets are shown the sender has not sent any weather packets the latest 10 day(s).
| Time | Temp. | Humidity | Pressure | Rain* | Wind** | Luminosity | Snow |
|---|---|---|---|---|---|---|---|
| 1777834515 | 24.44° C | 12% | 1016 hPa | 0 mm | - | 891 W/m² | - |
| 1777834204 | 24.44° C | 12% | 1016.1 hPa | 0 mm | - | 868 W/m² | - |
| 1777833914 | 24.44° C | 13% | 1016.2 hPa | 0 mm | - | 891 W/m² | - |
| 1777833604 | 24.44° C | 13% | 1016.4 hPa | 0 mm | - | 881 W/m² | - |
| 1777833315 | 24.44° C | 13% | 1016.5 hPa | 0 mm | - | 898 W/m² | - |
| 1777833003 | 24.44° C | 13% | 1016.6 hPa | 0 mm | - | 619 W/m² | - |
| 1777832715 | 24.44° C | 14% | 1016.6 hPa | 0 mm | - | 686 W/m² | - |
| 1777832404 | 23.89° C | 16% | 1016.8 hPa | 0 mm | - | 747 W/m² | - |
| 1777832115 | 22.78° C | 17% | 1016.9 hPa | 0 mm | - | 1141 W/m² | - |
| 1777831815 | 22.22° C | 18% | 1016.9 hPa | 0 mm | - | 953 W/m² | - |
| 1777831515 | 21.67° C | 18% | 1017 hPa | 0 mm | - | 675 W/m² | - |
| 1777831204 | 21.67° C | 18% | 1017 hPa | 0 mm | - | 893 W/m² | - |
| 1777830915 | 21.67° C | 18% | 1017.1 hPa | 0 mm | - | 543 W/m² | - |
| 1777830604 | 21.11° C | 19% | 1017.1 hPa | 0 mm | - | 909 W/m² | - |
| 1777830315 | 20.56° C | 19% | 1017.2 hPa | 0 mm | - | 538 W/m² | - |
| 1777830004 | 20.56° C | 20% | 1017.3 hPa | 0 mm | - | 621 W/m² | - |
| 1777829715 | 20° C | 21% | 1017.5 hPa | 0 mm | - | 657 W/m² | - |
| 1777829404 | 19.44° C | 21% | 1017.5 hPa | 0 mm | - | 751 W/m² | - |
| 1777829115 | 19.44° C | 22% | 1017.6 hPa | 0 mm | - | 684 W/m² | - |
| 1777828804 | 19.44° C | 22% | 1017.6 hPa | 0 mm | - | 490 W/m² | - |
| 1777828515 | 18.89° C | 23% | 1017.7 hPa | 0 mm | - | 545 W/m² | - |
| 1777828215 | 18.33° C | 24% | 1017.7 hPa | 0 mm | - | 446 W/m² | - |
| 1777827904 | 18.33° C | 24% | 1017.9 hPa | 0 mm | - | 497 W/m² | - |
| 1777827615 | 18.33° C | 25% | 1017.9 hPa | 0 mm | - | 429 W/m² | - |
| 1777827304 | 18.33° C | 25% | 1018 hPa | 0 mm | - | 415 W/m² | - |
* Rain latest hour (hover to see other rain measurements)
** Current wind speed in m/s (hover to see current wind gust speed)